FENGYUN 1C DEB, 32191

Orbit data source: Space-Track

FENGYUN 1C DEB, 32191 is space debris in SSO originally from a launch on Mon, 10 May 1999 UTC launched from the Taiyaun Space Center, China (TSC). Fengyun 1C debris stems from the Chinese weather satellite Fengyun-1C, which was intentionally destroyed by a Chinese anti-satellite missile in 2007. This event dramatically increased the amount of space debris, with thousands of trackable fragments posing hazards to satellites and human spaceflight. The Fengyun 1C debris cloud has become a focal point in discussions about space sustainability and the need for international regulations to prevent the creation of new debris.

Loading next visibility...
Identifier
32191, 1999-025CUM
Orbit
SSO
Country
Flag of CNCN / PRC
Related business
Manufacturer
Unknown
Mission
Spacecraft
Bus & Motor
Unknown
Mass
Unknown
Launch date (UTC)
1999-05-10 (27 years ago)
Launch vehicle
Unknown
Launch site
Taiyaun Space Center, China (TSC)
Object type
Payload
Rocket body
Debris
Shape & HBR
Unknown shape, 0.1 m
Radar Cross Section
Small (<0.1 m²)

Expand to show TLE details & history
Last TLE update: 6 days ago

TLE from 6 days ago
0 FENGYUN 1C DEB
1 32191U 99025CUM 25307.42678839  .00003052  00000-0  12707-2 0  9994
2 32191  98.7115   3.8318 0092021 300.8328  58.3821 14.24792445639412
Epoch: 2025-11-03T10:14Z
TLE epoch observation values (Epoch: 2025-11-03T10:14:34.516Z)
Latitude
-0.00004°
Longitude
167.25966°
Altitude
777.876 km
Speed
7.483 km/s
True Right ascension
00h 15m 19s
True Declination
0° 00' 00"
Sunlit
Object was in full shadow at epoch
Visualization orbit readout
Latitude
Unknown
Longitude
Unknown
Altitude
Unknown
Speed
Unknown
Apparent Right ascension
Unknown
Apparent Declination
Unknown
Sunlit
N/A
Visualization observer readout
Local Sidereal Time
07:30:14
Azimuth
Unknown
Elevation
Unknown
Doppler factor
Unknown
Orbital elements
Apogee altitude
872.455 km
Perigee altitude
740.23 km
Semi-major axis
7,184.479 km
Eccentricity
0.0092
Inclination
98.7115°
RAAN
3.8318°
Arg. of periapsis
300.8328°
True anomaly
59.28547°
Mean anomaly
58.3821°
Eccentric anomaly
58.83324°
Mean motion
3.5641 °/min
Orbital period
101.01 mins
BSTAR
0.0012707
Loading maneuver chart data...
Computing Atmospheric mass density...

Documentation

Showing up to 5 results
|